TIMESTAMP,CO2_1_1_1,H2O_1_1_1,TAU_1_1_1,TAU_SSITC_TEST_1_1_1,H_1_1_1,H_SSITC_TEST_1_1_1,LE_1_1_1,LE_SSITC_TEST_1_1_1,FC_1_1_1,FC_SSITC_TEST_1_1_1,WD_0_0_1,WS_0_0_1,WS_MAX_0_0_1,U_SIGMA_0_0_1,V_SIGMA_0_0_1,W_SIGMA_0_0_1,USTAR_0_0_1,MO_LENGTH_0_0_1,ZL_0_0_1,FETCH_MAX_0_0_1,FETCH_70_0_0_1,FETCH_80_0_0_1,FETCH_90_0_0_1,PA_0_0_1,RH_0_0_1,TA_0_0_1,VPD_0_0_1,T_SONIC_0_0_1,T_SONIC_SIGMA_0_0_1
[yyyymmddHHMMSS],[mmolCO2 mol-1],[mmolH2O mol-1],[kg m-1 s-2],[#],[W m-2],[#],[W m-2],[#],[umolCO2 m-2 s-1],[#],[Decimal degrees],[m s-1],[m s-1],[m s-1],[m s-1],[m s-1],[m s-1],[m],[#],[m],[m],[m],[m],[kPa],[%],[deg C],[hPa],[deg C],[deg C]
20220804003000,407.87413085157510,15.622330960597919,0.85249423370532851,0,-7.2734394987413911,1,57.128938245779899,0,-1.7693829225546223,0,319.84279622395491,4.6475664261348255,12.915564663862856,2.0266002198102719,1.4231040314971595,1.0245726772530905,0.88093095143544453,7799.5656599602398,2.4360330854752824E-003,110.96197523172518,202.87388023047504,242.78821992387901,303.94204104645064,93.111708973846902,60.892413793103451,20.399310344827597,9.3446799696331553,20.948825227992302,0.12433482652037349
20220804010000,408.62346771784286,15.682187055762904,0.67640263981620385,0,-21.067651424523891,0,38.255457456482510,0,-1.0476531921562413,0,313.33481825533988,3.7860147999803768,11.356586494105338,1.7111992776221621,1.2476031462182744,0.89010153474180531,0.78374597364220999,1897.1748603943315,1.0014891297922223E-002,113.09502947446445,206.77378368896058,247.45540831444472,309.78480708271707,93.175774543308620,63.135666666666665,19.887333333333345,8.5341001355919772,20.503596490393079,0.17103987844689816
20220804013000,410.21350000347400,15.851874991631966,0.28983226269467971,0,-32.458802814111294,0,7.6392184239772218,1,1.1226010681019436,1,313.85202782687611,2.9698356813184126,7.6050776357624423,1.2612767423750300,0.81659363135340068,0.59549310364440411,0.51230723553039248,344.07200514717726,5.5220999429676718E-002,111.01403866365126,202.96906878881586,242.90213631671597,304.08465085247155,93.231801547960075,66.582666666666668,19.214666666666687,7.4194515001367316,19.931018628438267,0.22265500401808552
20220804020000,412.24069173017040,16.076444753003404,0.15899297267806017,0,-27.211676521249682,0,2.4456029242948194,1,2.0095299507005744,0,314.80155562832351,2.8641353757123889,6.3744363262944335,0.97320934439170304,0.76347239483915852,0.52875360602152022,0.37897913410686812,166.21391751070320,0.11431052395944227,95.927795772701572,175.38660527377093,209.89297214868549,262.76109432401171,93.284347214409721,70.030666666666662,18.640333333333331,6.4195426703622003,19.396032438490124,0.21595592929135929
20220804023000,413.94248811904538,16.228932618471628,0.25909467868956282,0,-43.606884907676161,0,1.9464332784173721,2,4.1254038532185495,0,314.48123205573097,3.1183830488446493,7.1710848919252026,1.1056156795487506,0.90136424770161527,0.68022875914694958,0.48322267286856735,215.13604337128811,8.8316210069966011E-002,95.246439729429511,174.14086911930519,208.40214413724337,260.89475456177365,93.357226618498913,72.873333333333335,18.168666666666695,5.6413386790699676,18.942588377732932,0.19813873204605842
20220804030000,417.17536312396277,16.528726275934723,0.23883654267409252,0,-40.916007802496424,0,2.4203417457166942,2,5.0550182536602062,0,330.55058809215382,2.6167599670254442,8.1791883713469922,1.0801654410504260,0.78761586023780783,0.55428028710745980,0.46336956538865720,202.28117421735010,9.3928661792246654E-002,108.49590770242114,198.36512227500876,237.39238820403574,297.18710002589148,93.424041252387156,76.888666666666666,17.618666666666684,4.6427701989478258,18.417694879319924,0.23210271071530011
20220804033000,418.92736271241847,16.674649801514850,0.34044982732880269,0,-46.915007874304678,0,1.2011120206762873,2,5.0471520115355153,0,340.10527442355431,2.6775207719226177,7.4592757247172630,1.1399396454641113,0.85379427436343591,0.60881512143739636,0.55263435661895000,299.38062208740740,6.3464361412318607E-002,115.88223427552477,211.86968299867698,253.55389827733109,317.41939284310581,93.468852065538201,80.096000000000004,17.118666666666684,3.8740894584966030,17.939574289957704,0.17896594760276882
20220804040000,419.28615046764781,16.846645861801168,0.24731149658055906,0,-35.052142295445861,0,1.2441059976093038,2,4.4268287018952979,0,335.09313980778973,2.4094045608782033,6.5770006363635236,1.0069069163621989,0.74401817928253011,0.55291980814228203,0.47072871801011751,247.73060084780272,7.6696217322271609E-002,110.08844475217403,201.27678791559831,240.87690832604042,301.54930573044163,93.513785629340276,82.153333333333336,16.887999999999977,3.4232410942812135,17.743501306321889,0.15647465920326747
20220804043000,421.57944830571120,16.982564975461816,0.16502179920495652,0,-35.611707952595168,0,0.64597249005347934,2,6.3177381160773729,0,326.67627631444998,1.7066783695449321,5.1058305290023123,0.85074876265993060,0.56959580375638807,0.42559971582809403,0.38423595556535539,132.64631367428254,0.14323805519884356,115.38045259658904,210.95226605452413,252.45598450673708,316.04493508550962,93.545219804921928,84.686666666666667,16.541666666666686,2.8733998255458277,17.406631490584857,0.20528293545676307
20220804050000,422.80958105556829,17.064118342498944,9.1012857351377152E-002,0,-7.4283621102564759,0,3.3108726335229526,1,4.7873472768459875,0,341.18974658893399,1.8389246525581755,3.9002582329992110,0.69245060161721039,0.41850683031696873,0.29295128077393567,0.28514750040576436,259.98461668088368,7.3081247046710526E-002,122.53897240981530,224.04032336589694,268.11904637197063,335.65322989424669,93.585679687717089,86.750000000000000,16.245666666666637,2.4398106758019775,17.129887905038174,7.4247468851532911E-002
20220804053000,422.22223434889315,17.029296844933352,8.9353321649100384E-002,0,-7.7555465175853602,0,1.3055833453350636,0,3.9523303939966206,0,339.67864016715657,1.9295470550103284,3.9312435619842518,0.60831783822865348,0.58064896851576420,0.36495697070352745,0.28248257365844387,242.13803757039256,7.8467638503415482E-002,102.01285411126234,186.51203264647754,223.20726724001628,279.42901184662708,93.607227056423611,86.806666666666672,16.206999999999994,2.4233940136803040,17.070067745632628,7.2642627189566294E-002
20220804060000,423.96406539896111,17.073803153087994,7.0892791193731375E-002,0,-6.4928556866365428,0,-1.1229607589933306,1,1.7648903575234154,0,339.39103348876574,1.5705192388138418,3.8027451382253377,0.51226163365850774,0.40326859292754569,0.28747700686404049,0.25149337964543095,204.12353351362330,9.3080889170145245E-002,112.51065523831488,205.70536120867578,246.17677948445282,308.18411551518381,93.621468975260413,88.400000000000006,15.965333333333319,2.0981084106650587,16.849597145928328,9.2175780820107897E-002
20220804063000,425.51481612526067,17.200199652263088,1.0461229312560997E-002,1,-3.3158706287382889,1,0.19010746638261272,2,-0.39780257909770961,2,304.30461431385322,1.8682213154000422,2.5790397639191438,0.33615271523038970,0.29850255718873553,0.10885988132153104,9.6570311491015817E-002,22.632543168726688,0.83949911675210753,459.41267600801598,4884.0000000000000,9327.0000000000000,-9999.,93.634369516059024,90.239999999999995,15.760666666666680,1.7423523636875349,16.738725095537006,0.10486089167527428
20220804070000,426.84761587398884,17.151088351203477,2.6875655078440933E-002,1,2.8775007516985660,2,5.6877109983663097,2,1.9159256952481121,1,299.60872381515395,2.2640344815291451,3.5520861008790869,0.37754710160672916,0.23612395217509902,0.16286332974929657,0.15465291972441825,-107.13247454876004,-0.17735051934558257,247.36233584875993,873.00000000000000,1237.0000000000000,2132.0000000000000,93.655261274522559,92.500000000000000,15.333666666666659,1.3027463763826086,16.295396720038639,0.23274840672468056
20220804073000,428.14356484852624,17.076944764168886,4.1295941339412855E-002,0,-11.623735518131578,0,-1.0815874024195840,0,3.2623822088424799,0,300.12365090618897,2.5107454164678735,4.0452585746585452,0.51348362576525075,0.34342454467305311,0.24366191459300504,0.19154617757319914,50.399832207718973,0.37698538204835652,214.68161068725894,2106.0000000000000,3930.0000000000000,-9999.,93.685655421006942,94.376666666666665,14.959000000000003,0.95351811023402433,15.886298877292234,0.16772121856975886
20220804080000,430.74494727841409,17.070527833502194,4.4144616689891739E-002,0,-10.466891594642979,0,-1.7912099863989803,0,3.6296402466347426,0,306.80982975017287,2.7953593126906497,4.7492589861918884,0.52617918995146273,0.43313492143467786,0.31261963867346454,0.19793673008899135,61.775372424299810,0.30756593209183480,233.29733985788187,2278.0000000000000,4244.0000000000000,-9999.,93.716361978515621,95.676666666666662,14.745999999999981,0.72308863484273844,15.623773216247571,9.7114884719027544E-002
20220804083000,430.40500685878038,17.096818700043247,5.5755613905857891E-002,0,-5.7919279784956492,0,1.0173220484533576,2,2.7729237373101974,0,313.25225922328531,2.2411570299246897,4.1813930193048181,0.64877211487434405,0.54798656710204008,0.29095494755834117,0.22242642547371644,158.43901181789730,0.11991996025472407,101.00512456523596,184.66958163748708,221.00232395080840,276.66868449662786,93.737561909071189,95.833333333333329,14.747999999999990,0.69697564591786665,15.653462808397080,8.1357202714099741E-002
20220804090000,430.99273589168672,17.078539019425129,2.4751375525919252E-002,0,-7.4390096794094012,1,-2.5216166169139766,1,2.7801415310362638,1,328.46051197524207,1.4301054184447271,3.2931743909581757,0.43622144438817012,0.27373693180249387,0.16883467144029848,0.14821018155679017,36.498228630391722,0.52057320897428117,134.65140041144042,1243.0000000000000,2281.0000000000000,6149.0000000000000,93.745878673828116,95.273333333333341,14.823666666666668,0.79451663683033991,15.769962816026464,0.13740278221065352
20220804093000,433.57448380214100,16.964908705996908,5.3688529748693453E-002,1,4.3766162294495841,2,11.014354368078985,2,4.3685273472736528,1,301.85502257669162,2.0062003576669856,4.0306270800955044,0.62077864498925073,0.35273894344888601,0.22310919017773967,0.21815415209261624,-197.87832752381036,-9.6018600105227614E-002,122.98487910092877,224.85558301189732,269.09470394801417,336.87463740371351,93.777291230323300,96.086666666666673,14.593666666666650,0.64811101818306038,15.489712944340226,0.22590628170745886
20220804100000,432.70718757863170,16.836058999050895,5.6730342385532193E-002,0,-6.5589296199631146,0,-1.4492390641205224,1,4.1162850386516379,1,302.48436654282955,2.0776604469413478,4.3387488315743923,0.55693105653673158,0.38717122009136967,0.28032386839476631,0.22416371168423407,143.27489649234596,0.13261220538390003,104.70781207610226,191.43927531896361,229.10391828364416,286.81091923118169,93.799018828993056,96.233333333333334,14.455666666666673,0.61828238480766007,15.321322143554710,8.5012697243854407E-002
20220804103000,436.68613913010580,16.776401064031447,3.7865934039276940E-002,0,-8.8415320215622657,0,-2.1885432346498552,1,4.2278289168086349,0,312.79319477468277,1.5295677896807311,3.3390216133903237,0.48925350931645839,0.39184312758680251,0.23853318829864439,0.18309828610843717,57.927725642434119,0.32799492452508483,102.63888074241665,915.00000000000000,1661.0000000000000,4401.0000000000000,93.816898301649303,96.333333333333329,14.387666666666689,0.59922674978588930,15.244235088772257,8.7358303724367412E-002
20220804110000,436.59359260605015,16.629087630230728,8.3901311791707830E-002,0,-9.3433459821907654,0,-3.5032232897823783,1,5.0691183234286044,0,334.13688381701172,1.9854469534201704,4.0439554378056926,0.66595146331337429,0.51890792092305249,0.31478944339089754,0.27246473989597370,180.66323182256730,0.10516805112099539,111.55448049978824,203.95716883035735,244.08463970216920,305.56500477010263,93.844741062717020,95.986666666666665,14.311666666666667,0.65266325650116186,15.138906276279045,0.12264577802418858
20220804113000,439.80848947360988,16.337056675200675,0.10647737831611415,0,-8.5446839654731352,0,-2.4191552462553898,1,3.4927086954802387,0,335.39686498827103,2.1228201148746799,4.3849666709704671,0.65231599724706912,0.48367899205562742,0.34612047511463473,0.30668744406532666,281.79206324066695,6.7425603764336275E-002,113.66581330206333,207.81735856797627,248.70430091188334,311.34827241572339,93.881180844095525,96.383333333333326,13.980666666666650,0.57567236271167077,14.745503048685350,9.8605992219329558E-002
20220804120000,436.94784319392619,16.222778512414177,7.6986644619721462E-002,0,5.5902516488675795,0,2.3299870109049214,0,1.7593452531638718,1,335.36169094745946,2.2235643102968132,4.2821702641963784,0.58032127238327669,0.49949155752250790,0.34236547474340134,0.26076150980769236,-264.82856891914935,-7.1744525439778328E-002,100.70655026642933,184.12369259388004,220.34903418761792,275.85084323529679,93.922667874777758,95.146666666666661,14.078333333333319,0.77742531919575641,14.750467498811531,9.5867058780168851E-002
20220804123000,430.01242458084823,15.887684074342959,0.14493506353143401,0,31.795851564517086,1,36.176991991413473,0,-2.0407967576012305,2,350.50843672266649,1.5006559194588112,3.9706172696780673,0.68869672179186947,0.59404903170539114,0.42422930005025528,0.35811882264818640,-120.61194696049979,-0.15752999996113543,109.34428520293568,199.91622692207537,239.24866430891987,299.51093743547062,93.933198856987843,89.616666666666660,14.682999999999993,1.7295941077327301,15.230610704210108,0.27359178988300026
20220804130000,422.32418893911171,15.727407999879452,0.10378222263352245,1,35.358119125698252,0,48.515917835658904,0,-3.7266835269933019,1,1.2838870420548574,1.6069728877320271,3.6986958205313649,0.56517962939776389,0.60192743204279131,0.40105679463329424,0.30329412551705043,-65.889652704378108,-0.28836090676097198,100.13396099735718,183.07681679203520,219.09619122862023,274.28243251838546,93.946246680989589,85.703333333333333,15.221000000000004,2.4654156273804824,15.769028169420039,0.28324041535770955
20220804133000,415.18106154154322,16.018359253456982,0.12608335300308310,1,55.972553709721225,0,85.865574000501240,0,3.1065830362158584,2,32.548030608234711,1.2472240226613733,3.3912392173843844,0.66775712144587118,0.50501277593328375,0.38571832155196462,0.33481466572663537,-56.003621184232259,-0.33926377613148745,111.81041606065747,204.42510066208683,244.64463459329198,306.26605192237719,93.956567548828133,82.435333333333332,16.115999999999985,3.2076587965384578,16.701985247294147,0.38146770266636587
20220804140000,410.03103355417619,16.047586635322567,9.0639998167804561E-002,1,94.183895900395058,0,73.797053774891069,0,-10.430607623393641,0,15.755914234636720,1.1718897530768981,3.6674626940951343,0.53678867007434450,0.85811529049761592,0.39998870991402879,0.28424193549357263,-20.365912903959899,-0.93293141778612276,95.272428318028460,174.18838454789932,208.45900796966072,260.96594133225233,93.965578269772394,78.686333333333337,16.877666666666642,4.0855813286563238,17.474058605545338,0.41430420349059738
20220804143000,406.80751508608950,15.671888859835777,0.15585507493847728,1,114.71330121675992,0,178.54573788003810,1,-10.722801659060142,0,33.165368062500676,1.3785491027214865,3.8239940667076935,0.59136863075983392,0.73681753286274909,0.48340967125243278,0.37307962496083125,-37.812339949543137,-0.50248146571605035,101.77564354631187,186.07833607931869,222.68824321677593,278.77925535916131,93.980622646918405,73.805999999999997,17.517666666666685,5.2286105480566221,18.069310579935745,0.43792714297541024
20220804150000,406.28117852248704,15.781795016434019,0.14385956101198288,1,128.16566435454374,0,131.19549600368825,0,-6.6279662773353962,0,12.128696222503862,0.80817723672219555,3.4918301809076544,0.56061086904942581,0.98386669705150676,0.47935159222164458,0.35883582341356723,-30.117428295969052,-0.63086395735000322,99.322626351966392,181.59343829834754,217.32096603182973,272.06006122788892,93.994306411892367,71.216333333333338,18.198333333333323,5.9970950470149136,18.724025638156490,0.48159179056564544
20220804153000,405.22676249619002,15.272442545613458,0.20833038950301169,1,208.42858632800593,1,198.73873090406028,1,-16.108734807785304,1,319.36239171259490,1.3602495290550376,4.3422998155674382,0.94031189773780877,0.51938056646318931,0.48757295872410705,0.43202475362553183,-32.321755758872705,-0.58783935321286729,113.66587926995952,207.81747917832988,248.70444525167233,311.34845311201121,94.012176089192707,67.272999999999996,18.586666666666645,6.9867384539110686,18.981123936123254,0.56550747193185746
20220804160000,405.55383002061507,14.932774762346039,1.5642838828569781E-002,1,78.975972076384750,0,132.93579422463793,0,-6.2756201385129051,0,343.39415121691979,0.77895945642023634,4.4760089423338654,0.87309597203765532,0.76944492958547350,0.36938302705683262,0.11846632753316677,-1.7589601400969344,-10.801836589061610,22.375232903648442,66.000000000000000,89.000000000000000,143.00000000000000,94.030551941189231,63.747666666666667,19.091333333333353,7.9872568529836423,19.352450556437191,0.50008194578711584
20220804163000,404.06143764749663,14.835625824928181,0.11940945709880979,1,197.59947324677913,1,252.35739999685526,1,-16.459681824057451,1,355.14997088010614,0.99803512916962789,4.6524063624036902,0.71442102833212007,0.89728092183020647,0.43360628865433043,0.32769319689696158,-14.879205144244702,-1.2769499321910502,100.08117193927188,182.98030155764872,218.98068714339442,274.13783510989612,94.029832075330759,60.646000000000001,19.788333333333355,9.0547138630115267,20.042839545573770,0.67978272162488806
20220804170000,404.33568718680431,14.300345898956335,0.16663753274635640,1,170.82644716977745,0,192.41126768548131,0,-19.399238000580290,0,334.90650025714126,1.1781240001427609,5.4525776318763572,0.88874962234880173,0.79683130983472028,0.47758938225280551,0.38722044769921005,-28.397343378869461,-0.66907667194452947,105.87119024139926,193.56630164556179,231.64942554647820,289.99759226336960,94.039542016170202,57.540333333333336,20.045333333333360,9.9260791512991187,20.249533823392539,0.56659996486011888
20220804173000,403.91970766633477,13.724324757507985,0.14079752759851802,1,113.44954194563277,0,174.63262625025183,0,-12.587535721346073,0,341.12512389454793,1.6264782116017282,5.2994904093584054,0.94192830041421327,0.71509799410832986,0.48001382187254205,0.35614276956032942,-33.262904949631746,-0.57120687530961867,98.616869194698808,180.30308912516185,215.77674763130378,270.12688303405190,94.030856748697914,53.931333333333335,20.426666666666677,11.026618375029265,20.506237439473466,0.48433266313801876
20220804180000,402.87144395135425,14.026511627160218,0.14686986332153962,0,175.67382542047164,0,302.35206855410576,1,-17.136217457757322,1,298.83283466757996,1.3318251263777057,6.4723347518264909,1.1949995884127913,0.89594549875205720,0.56764439200334638,0.36390591606073147,-22.916609713175081,-0.82909296958863132,87.737470887960058,160.41207921431896,191.97228900284236,240.32652557103833,94.023315907769117,54.411999999999999,20.634666666666647,11.052424805109407,20.769782086690270,0.53492173437415069
20220804183000,402.27151796106540,13.819243684350266,0.30647864446625900,1,291.61519818695888,0,445.24829095435376,0,-22.201378718635894,1,308.14790304493954,0.98678945670860285,5.2702434989905305,1.0201984254084209,1.1210832289072064,0.64789148111939110,0.52638406495377865,-41.776918063680185,-0.45479659296644309,106.04623909335415,193.88634677590321,232.03243782683001,290.47707818847954,94.009881636501746,51.134333333333331,21.401333333333355,12.418395589936573,21.329211351182778,0.65939614502977606
20220804190000,401.99046731845374,13.659312634130176,0.15715709779636583,0,38.644992723569537,0,266.01266002993299,0,-14.446647199540607,0,348.28216893251658,1.3371957950879889,4.9056225285042130,0.86648900022769348,0.71295547174081075,0.42574945627124483,0.37653239676434980,-115.39893524017050,-0.16464623317760108,113.49415538350145,207.50351314535999,248.32870809825107,310.87807478252046,94.030230689019092,52.294666666666664,20.849666666666678,11.719858325893552,21.058052329169413,0.28451480986439825
20220804193000,400.87311494932061,13.718576869101907,8.7078308204630486E-002,1,36.992126537443127,1,191.49793436208611,0,-14.680072713840669,0,299.53062392669682,1.2348860205852268,4.0197649861838203,0.92287009107247797,0.78288168892001930,0.44439283178269240,0.28040536822611350,-49.792063186801819,-0.38158691935939409,86.630400622177433,158.38800168651653,189.54998515867669,237.29408859917370,94.034862956814237,51.649333333333331,21.122999999999990,12.079589688207214,21.309572606404629,0.32100016909203327
20220804200000,400.77234709901029,13.978821250985966,0.30146916968166909,1,179.38801123464469,0,425.96298333723041,1,-15.958876372697054,0,4.7382106263858645,0.97188860712600844,4.0027025425271132,0.82094849844418283,0.65133960252773426,0.58757025459671341,0.52262378538894816,-66.474715366209068,-0.28582296133693902,114.01405589413109,208.45405709255431,249.46626643073105,312.30216282720301,94.017636356927540,49.751333333333335,22.039333333333332,13.277495947000080,22.189040415495128,0.48207561794985376
20220804203000,401.34068660985059,13.618597308606075,7.5437776267096635E-002,1,142.26332599013247,0,196.29023434936434,0,-11.468084969394587,0,6.3360584284207562,0.91044798822323358,4.0572244219491713,0.73752219181462575,1.0543436963233372,0.48591234302657038,0.26149141941836085,-10.498635382812676,-1.8097590122145697,76.273646373361672,139.45255180232971,166.88908782868643,208.92533418192576,94.016363821614576,47.981000000000002,22.205333333333328,13.884972119930847,22.162546301947714,0.46209106237707936
20220804210000,400.55845255094260,14.188623438227310,0.18481953340475113,1,117.89009569737144,0,213.94598501301326,0,-10.342651142072707,0,19.553966925225211,0.99790494577634992,4.2961812055648814,0.75406498844324121,0.92940272924210132,0.48150163696406556,0.40944731024503089,-48.641655217851856,-0.39061170749442048,109.98541641864256,201.08841926270117,240.65147915854777,301.26709516313900,94.014727642795151,49.534333333333336,22.355333333333363,13.593845409946686,22.500206548902725,0.43687073182035424
20220804213000,400.74598007585041,14.030916844341522,7.6373131677637512E-002,0,93.892111918517145,0,161.60731218884234,0,-8.7375733557340407,0,316.95485728795632,1.3971715419068209,4.5496107704840831,0.85931398896711741,0.70612087020912107,0.40971168963115917,0.26321882636601673,-16.226113741541223,-1.1709519791764569,87.887229524777283,160.68588576548831,192.29996551342310,240.73673767877617,94.018410326870324,48.807333333333332,22.415333333333308,13.840064266960342,22.477004181527263,0.39522097639277270
20220804220000,400.07077141674847,14.318251414164267,7.8053073739846102E-002,1,102.35754602134124,0,220.27367383904249,0,-10.369328059510215,0,276.78427412243701,0.62848330898770111,3.4758668443650875,0.92089472434354569,0.60933556842436898,0.42396503414094205,0.26626282862846862,-15.405547598208029,-1.2333219496988266,86.305664496399075,157.79428047931842,188.83945251217276,236.40458604062181,94.002769327039914,48.945333333333330,22.699999999999989,14.043367655936754,22.811764845106438,0.45134432547039766
20220804223000,400.43573762287275,14.206160179923426,0.11834241433467950,1,56.434079435554160,0,135.40373370191938,0,-7.4350183439635655,0,286.64785219626123,1.1880784294522198,3.8412842151610920,0.64584932006809481,0.80805455790302372,0.39355068048424696,0.32786836836397676,-52.166021015094032,-0.36422176026234443,108.19669158555267,197.81805978328731,236.73769412315514,296.36750072545476,93.994708900824662,48.540333333333336,22.706000000000017,14.159920271743870,22.830381218804291,0.28905139102971456